Location: Earls Croome
(52.0667°N, 2.2000°W)
Time: 00:39:53
(UTC+00:00)

Helios 1A Rocket - Pass Details

Date: 17 November 2019
Orbit: 563 x 588 km, 98.3° (Epoch: 13 December)

Event Time Altitude Azimuth Distance (km) Brightness Sun altitude
Rises 05:19:19 0° 20° (NNE) 2,816 6.6 -20.0°
Reaches altitude 10° 05:21:37 10° 29° (NNE) 1,907 5.8 -19.7°
Maximum altitude 05:25:29 38° 98° (E) 885 4.4 -19.1°
Drops below altitude 10° 05:29:18 10° 168° (SSE) 1,877 5.8 -18.5°
Sets 05:31:32 0° 176° (S) 2,766 6.5 -18.2°
